Year,Month,Day,Hour,Minute,Value (Times are PST for temperature in C)
2007,06,25,00,00,8.10
2007,06,25,00,01,8.10
2007,06,25,00,02,8.10
2007,06,25,00,03,8.10
2007,06,25,00,04,8.10
2007,06,25,00,05,8.10
2007,06,25,00,06,8.10
2007,06,25,00,07,8.00
2007,06,25,00,08,8.00
2007,06,25,00,09,8.00
2007,06,25,00,10,8.00
2007,06,25,00,11,8.00
2007,06,25,00,12,7.90
2007,06,25,00,13,7.90
2007,06,25,00,14,7.90
2007,06,25,00,15,7.90
2007,06,25,00,16,7.90
2007,06,25,00,17,7.90
2007,06,25,00,18,7.90
2007,06,25,00,19,7.90
2007,06,25,00,20,7.90
2007,06,25,00,21,7.90
2007,06,25,00,22,7.90
2007,06,25,00,23,7.90
2007,06,25,00,24,7.90
2007,06,25,00,25,7.90
2007,06,25,00,26,7.80
2007,06,25,00,27,7.80
2007,06,25,00,28,7.80
2007,06,25,00,29,7.80
2007,06,25,00,30,7.80
2007,06,25,00,31,7.80
2007,06,25,00,32,7.80
2007,06,25,00,33,7.80
2007,06,25,00,34,7.80
2007,06,25,00,35,7.90
2007,06,25,00,36,7.90
2007,06,25,00,37,7.90
2007,06,25,00,38,7.90
2007,06,25,00,39,7.90
2007,06,25,00,40,7.90
2007,06,25,00,41,7.90
2007,06,25,00,42,7.90
2007,06,25,00,43,7.90
2007,06,25,00,44,7.90
2007,06,25,00,45,7.90
2007,06,25,00,46,7.90
2007,06,25,00,47,7.90
2007,06,25,00,48,7.90
2007,06,25,00,49,7.90
2007,06,25,00,50,7.90
2007,06,25,00,51,7.90
2007,06,25,00,52,7.90
2007,06,25,00,53,7.90
2007,06,25,00,54,7.90
2007,06,25,00,55,7.90
2007,06,25,00,56,7.90
2007,06,25,00,57,7.90
2007,06,25,00,58,7.90
2007,06,25,00,59,7.90
2007,06,25,01,00,7.90
2007,06,25,01,01,7.90
2007,06,25,01,02,7.90
2007,06,25,01,03,7.90
2007,06,25,01,04,7.90
2007,06,25,01,05,7.90
2007,06,25,01,06,7.90
2007,06,25,01,07,7.90
2007,06,25,01,08,7.90
2007,06,25,01,09,7.80
2007,06,25,01,10,7.80
2007,06,25,01,11,7.80
2007,06,25,01,12,7.80
2007,06,25,01,13,7.80
2007,06,25,01,14,7.80
2007,06,25,01,15,7.80
2007,06,25,01,16,7.80
2007,06,25,01,17,7.80
2007,06,25,01,18,7.80
2007,06,25,01,19,7.80
2007,06,25,01,20,7.80
2007,06,25,01,21,7.80
2007,06,25,01,22,7.80
2007,06,25,01,23,7.80
2007,06,25,01,24,7.80
2007,06,25,01,25,7.80
2007,06,25,01,26,7.80
2007,06,25,01,27,7.80
2007,06,25,01,28,7.80
2007,06,25,01,29,7.80
2007,06,25,01,30,7.80
2007,06,25,01,31,7.80
2007,06,25,01,32,7.80
2007,06,25,01,33,7.80
2007,06,25,01,34,7.80
2007,06,25,01,35,7.80
2007,06,25,01,36,7.80
2007,06,25,01,37,7.80
2007,06,25,01,38,7.80
2007,06,25,01,39,7.80
2007,06,25,01,40,7.80
2007,06,25,01,41,7.80
2007,06,25,01,42,7.80
2007,06,25,01,43,7.80
2007,06,25,01,44,7.80
2007,06,25,01,45,7.80
2007,06,25,01,46,7.80
2007,06,25,01,47,7.80
2007,06,25,01,48,7.80
2007,06,25,01,49,7.80
2007,06,25,01,50,7.80
2007,06,25,01,51,7.80
2007,06,25,01,52,7.80
2007,06,25,01,53,7.80
2007,06,25,01,54,7.80
2007,06,25,01,55,7.80
2007,06,25,01,56,7.80
2007,06,25,01,57,7.80
2007,06,25,01,58,7.80
2007,06,25,01,59,7.80
2007,06,25,02,00,7.80
2007,06,25,02,01,7.80
2007,06,25,02,02,7.80
2007,06,25,02,03,7.80
2007,06,25,02,04,7.80
2007,06,25,02,05,7.80
2007,06,25,02,06,7.80
2007,06,25,02,07,7.80
2007,06,25,02,08,7.70
2007,06,25,02,09,7.70
2007,06,25,02,10,7.70
2007,06,25,02,11,7.70
2007,06,25,02,12,7.70
2007,06,25,02,13,7.70
2007,06,25,02,14,7.70
2007,06,25,02,15,7.70
2007,06,25,02,16,7.80
2007,06,25,02,17,7.80
2007,06,25,02,18,7.80
2007,06,25,02,19,7.80
2007,06,25,02,20,7.80
2007,06,25,02,21,7.80
2007,06,25,02,22,7.80
2007,06,25,02,23,7.80
2007,06,25,02,24,7.80
2007,06,25,02,25,7.80
2007,06,25,02,26,7.80
2007,06,25,02,27,7.80
2007,06,25,02,28,7.80
2007,06,25,02,29,7.80
2007,06,25,02,30,7.80
2007,06,25,02,31,7.80
2007,06,25,02,32,7.80
2007,06,25,02,33,7.80
2007,06,25,02,34,7.80
2007,06,25,02,35,7.80
2007,06,25,02,36,7.80
2007,06,25,02,37,7.80
2007,06,25,02,38,7.80
2007,06,25,02,39,7.80
2007,06,25,02,40,7.80
2007,06,25,02,41,7.80
2007,06,25,02,42,7.80
2007,06,25,02,43,7.80
2007,06,25,02,44,7.80
2007,06,25,02,45,7.80
2007,06,25,02,46,7.80
2007,06,25,02,47,7.80
2007,06,25,02,48,7.80
2007,06,25,02,49,7.90
2007,06,25,02,50,7.90
2007,06,25,02,51,7.90
2007,06,25,02,52,7.90
2007,06,25,02,53,7.90
2007,06,25,02,54,7.90
2007,06,25,02,55,7.90
2007,06,25,02,56,8.00
2007,06,25,02,57,8.00
2007,06,25,02,58,8.00
2007,06,25,02,59,8.00
2007,06,25,03,00,8.10
2007,06,25,03,01,8.10
2007,06,25,03,02,8.10
2007,06,25,03,03,8.10
2007,06,25,03,04,8.10
2007,06,25,03,05,8.10
2007,06,25,03,06,8.10
2007,06,25,03,07,8.10
2007,06,25,03,08,8.10
2007,06,25,03,09,8.20
2007,06,25,03,10,8.20
2007,06,25,03,11,8.20
2007,06,25,03,12,8.20
2007,06,25,03,13,8.20
2007,06,25,03,14,8.20
2007,06,25,03,15,8.20
2007,06,25,03,16,8.30
2007,06,25,03,17,8.30
2007,06,25,03,18,8.30
2007,06,25,03,19,8.30
2007,06,25,03,20,8.30
2007,06,25,03,21,8.40
2007,06,25,03,22,8.40
2007,06,25,03,23,8.40
2007,06,25,03,24,8.40
2007,06,25,03,25,8.40
2007,06,25,03,26,8.40
2007,06,25,03,27,8.40
2007,06,25,03,28,8.40
2007,06,25,03,29,8.40
2007,06,25,03,30,8.40
2007,06,25,03,31,8.50
2007,06,25,03,32,8.50
2007,06,25,03,33,8.50
2007,06,25,03,34,8.50
2007,06,25,03,35,8.50
2007,06,25,03,36,8.50
2007,06,25,03,37,8.60
2007,06,25,03,38,8.60
2007,06,25,03,39,8.60
2007,06,25,03,40,8.60
2007,06,25,03,41,8.60
2007,06,25,03,42,8.60
2007,06,25,03,43,8.60
2007,06,25,03,44,8.60
2007,06,25,03,45,8.70
2007,06,25,03,46,8.60
2007,06,25,03,47,8.70
2007,06,25,03,48,8.70
2007,06,25,03,49,8.70
2007,06,25,03,50,8.70
2007,06,25,03,51,8.70
2007,06,25,03,52,8.70
2007,06,25,03,53,8.70
2007,06,25,03,54,8.70
2007,06,25,03,55,8.70
2007,06,25,03,56,8.70
2007,06,25,03,57,8.70
2007,06,25,03,58,8.70
2007,06,25,03,59,8.70
2007,06,25,04,00,8.70
2007,06,25,04,01,8.70
2007,06,25,04,02,8.70
2007,06,25,04,03,8.70
2007,06,25,04,04,8.70
2007,06,25,04,05,8.60
2007,06,25,04,06,8.60
2007,06,25,04,07,8.60
2007,06,25,04,08,8.60
2007,06,25,04,09,8.60
2007,06,25,04,10,8.60
2007,06,25,04,11,8.60
2007,06,25,04,12,8.60
2007,06,25,04,13,8.60
2007,06,25,04,14,8.60
2007,06,25,04,15,8.60
2007,06,25,04,16,8.60
2007,06,25,04,17,8.60
2007,06,25,04,18,8.60
2007,06,25,04,19,8.60
2007,06,25,04,20,8.60
2007,06,25,04,21,8.60
2007,06,25,04,22,8.60
2007,06,25,04,23,8.60
2007,06,25,04,24,8.60
2007,06,25,04,25,8.60
2007,06,25,04,26,8.60
2007,06,25,04,27,8.60
2007,06,25,04,28,8.60
2007,06,25,04,29,8.60
2007,06,25,04,30,8.70
2007,06,25,04,31,8.70
2007,06,25,04,32,8.70
2007,06,25,04,33,8.70
2007,06,25,04,34,8.70
2007,06,25,04,35,8.70
2007,06,25,04,36,8.70
2007,06,25,04,37,8.70
2007,06,25,04,38,8.70
2007,06,25,04,39,8.70
2007,06,25,04,40,8.70
2007,06,25,04,41,8.70
2007,06,25,04,42,8.70
2007,06,25,04,43,8.70
2007,06,25,04,44,8.70
2007,06,25,04,45,8.70
2007,06,25,04,46,8.70
2007,06,25,04,47,8.80
2007,06,25,04,48,8.80
2007,06,25,04,49,8.80
2007,06,25,04,50,8.80
2007,06,25,04,51,8.80
2007,06,25,04,52,8.80
2007,06,25,04,53,8.80
2007,06,25,04,54,8.80
2007,06,25,04,55,8.80
2007,06,25,04,56,8.80
2007,06,25,04,57,8.80
2007,06,25,04,58,8.80
2007,06,25,04,59,8.80
2007,06,25,05,00,8.90
2007,06,25,05,01,8.90
2007,06,25,05,02,8.90
2007,06,25,05,03,8.90
2007,06,25,05,04,8.90
2007,06,25,05,05,8.90
2007,06,25,05,06,8.90
2007,06,25,05,07,8.90
2007,06,25,05,08,8.90
2007,06,25,05,09,8.90
2007,06,25,05,10,8.90
2007,06,25,05,11,8.90
2007,06,25,05,12,8.90
2007,06,25,05,13,8.90
2007,06,25,05,14,8.90
2007,06,25,05,15,8.90
2007,06,25,05,16,8.90
2007,06,25,05,17,8.90
2007,06,25,05,18,8.90
2007,06,25,05,19,8.90
2007,06,25,05,20,8.90
2007,06,25,05,21,8.90
2007,06,25,05,22,8.90
2007,06,25,05,23,8.90
2007,06,25,05,24,8.90
2007,06,25,05,25,8.90
2007,06,25,05,26,8.90
2007,06,25,05,27,8.90
2007,06,25,05,28,8.90
2007,06,25,05,29,8.90
2007,06,25,05,30,8.90
2007,06,25,05,31,8.90
2007,06,25,05,32,8.90
2007,06,25,05,33,8.90
2007,06,25,05,34,8.90
2007,06,25,05,35,8.90
2007,06,25,05,36,8.90
2007,06,25,05,37,8.90
2007,06,25,05,38,8.90
2007,06,25,05,39,8.90
2007,06,25,05,40,9.00
2007,06,25,05,41,9.00
2007,06,25,05,42,9.00
2007,06,25,05,43,9.00
2007,06,25,05,44,9.00
2007,06,25,05,45,9.00
2007,06,25,05,46,9.00
2007,06,25,05,47,9.00
2007,06,25,05,48,9.00
2007,06,25,05,49,9.00
2007,06,25,05,50,9.00
2007,06,25,05,51,9.00
2007,06,25,05,52,9.00
2007,06,25,05,53,9.00
2007,06,25,05,54,9.00
2007,06,25,05,55,9.00
2007,06,25,05,56,9.00
2007,06,25,05,57,9.00
2007,06,25,05,58,9.10
2007,06,25,05,59,9.10
2007,06,25,06,00,9.10
2007,06,25,06,01,9.20
2007,06,25,06,02,9.20
2007,06,25,06,03,9.20
2007,06,25,06,04,9.20
2007,06,25,06,05,9.20
2007,06,25,06,06,9.20
2007,06,25,06,07,9.20
2007,06,25,06,08,9.20
2007,06,25,06,09,9.30
2007,06,25,06,10,9.30
2007,06,25,06,11,9.30
2007,06,25,06,12,9.30
2007,06,25,06,13,9.30
2007,06,25,06,14,9.40
2007,06,25,06,15,9.40
2007,06,25,06,16,9.40
2007,06,25,06,17,9.40
2007,06,25,06,18,9.40
2007,06,25,06,19,9.50
2007,06,25,06,20,9.50
2007,06,25,06,21,9.50
2007,06,25,06,22,9.60
2007,06,25,06,23,9.60
2007,06,25,06,24,9.60
2007,06,25,06,25,9.70
2007,06,25,06,26,9.80
2007,06,25,06,27,9.80
2007,06,25,06,28,9.90
2007,06,25,06,29,9.90
2007,06,25,06,30,9.90
2007,06,25,06,31,10.00
2007,06,25,06,32,10.00
2007,06,25,06,33,10.00
2007,06,25,06,34,10.10
2007,06,25,06,35,10.10
2007,06,25,06,36,10.20
2007,06,25,06,37,10.30
2007,06,25,06,38,10.30
2007,06,25,06,39,10.40
2007,06,25,06,40,10.40
2007,06,25,06,41,10.40
2007,06,25,06,42,10.50
2007,06,25,06,43,10.50
2007,06,25,06,44,10.50
2007,06,25,06,45,10.50
2007,06,25,06,46,10.50
2007,06,25,06,47,10.60
2007,06,25,06,48,10.60
2007,06,25,06,49,10.60
2007,06,25,06,50,10.60
2007,06,25,06,51,10.60
2007,06,25,06,52,10.60
2007,06,25,06,53,10.60
2007,06,25,06,54,10.70
2007,06,25,06,55,10.70
2007,06,25,06,56,10.70
2007,06,25,06,57,10.80
2007,06,25,06,58,10.80
2007,06,25,06,59,10.80
2007,06,25,07,00,10.80
2007,06,25,07,01,10.90
2007,06,25,07,02,10.90
2007,06,25,07,03,10.90
2007,06,25,07,04,11.00
2007,06,25,07,05,11.00
2007,06,25,07,06,11.10
2007,06,25,07,07,11.10
2007,06,25,07,08,11.10
2007,06,25,07,09,11.10
2007,06,25,07,10,11.20
2007,06,25,07,11,11.20
2007,06,25,07,12,11.20
2007,06,25,07,13,11.20
2007,06,25,07,14,11.20
2007,06,25,07,15,11.20
2007,06,25,07,16,11.20
2007,06,25,07,17,11.20
2007,06,25,07,18,11.30
2007,06,25,07,19,11.30
2007,06,25,07,20,11.30
2007,06,25,07,21,11.30
2007,06,25,07,22,11.20
2007,06,25,07,23,11.20
2007,06,25,07,24,11.20
2007,06,25,07,25,11.20
2007,06,25,07,26,11.20
2007,06,25,07,27,11.20
2007,06,25,07,28,11.10
2007,06,25,07,29,11.10
2007,06,25,07,30,11.10
2007,06,25,07,31,11.10
2007,06,25,07,32,11.10
2007,06,25,07,33,11.00
2007,06,25,07,34,11.00
2007,06,25,07,35,11.00
2007,06,25,07,36,11.00
2007,06,25,07,37,11.00
2007,06,25,07,38,10.90
2007,06,25,07,39,10.90
2007,06,25,07,40,10.90
2007,06,25,07,41,10.90
2007,06,25,07,42,10.90
2007,06,25,07,43,10.90
2007,06,25,07,44,10.90
2007,06,25,07,45,10.90
2007,06,25,07,46,10.90
2007,06,25,07,47,10.90
2007,06,25,07,48,10.90
2007,06,25,07,49,10.90
2007,06,25,07,50,11.00
2007,06,25,07,51,11.00
2007,06,25,07,52,11.00
2007,06,25,07,53,11.00
2007,06,25,07,54,11.00
2007,06,25,07,55,11.00
2007,06,25,07,56,11.00
2007,06,25,07,57,11.00
2007,06,25,07,58,11.00
2007,06,25,07,59,11.00
2007,06,25,08,00,11.00
2007,06,25,08,01,11.00
2007,06,25,08,02,11.00
2007,06,25,08,03,11.00
2007,06,25,08,04,11.00
2007,06,25,08,05,11.00
2007,06,25,08,06,11.10
2007,06,25,08,07,11.10
2007,06,25,08,08,11.10
2007,06,25,08,09,11.20
2007,06,25,08,10,11.30
2007,06,25,08,11,11.40
2007,06,25,08,12,11.40
2007,06,25,08,13,11.50
2007,06,25,08,14,11.50
2007,06,25,08,15,11.50
2007,06,25,08,16,11.60
2007,06,25,08,17,11.60
2007,06,25,08,18,11.60
2007,06,25,08,19,11.60
2007,06,25,08,20,11.60
2007,06,25,08,21,11.60
2007,06,25,08,22,11.60
2007,06,25,08,23,11.60
2007,06,25,08,24,11.60
2007,06,25,08,25,11.50
2007,06,25,08,26,11.50
2007,06,25,08,27,11.50
2007,06,25,08,28,11.50
2007,06,25,08,29,11.50
2007,06,25,08,30,11.50
2007,06,25,08,31,11.60
2007,06,25,08,32,11.60
2007,06,25,08,33,11.70
2007,06,25,08,34,11.70
2007,06,25,08,35,11.80
2007,06,25,08,36,11.80
2007,06,25,08,37,11.80
2007,06,25,08,38,11.90
2007,06,25,08,39,11.90
2007,06,25,08,40,12.00
2007,06,25,08,41,12.10
2007,06,25,08,42,12.20
2007,06,25,08,43,12.20
2007,06,25,08,44,12.30
2007,06,25,08,45,12.30
2007,06,25,08,46,12.40
2007,06,25,08,47,12.40
2007,06,25,08,48,12.50
2007,06,25,08,49,12.60
2007,06,25,08,50,12.60
2007,06,25,08,51,12.60
2007,06,25,08,52,12.70
2007,06,25,08,53,12.70
2007,06,25,08,54,12.70
2007,06,25,08,55,12.70
2007,06,25,08,56,12.70
2007,06,25,08,57,12.70
2007,06,25,08,58,12.70
2007,06,25,08,59,12.70
2007,06,25,09,00,12.60
2007,06,25,09,01,12.60
2007,06,25,09,02,12.60
2007,06,25,09,03,12.60
2007,06,25,09,04,12.70
2007,06,25,09,05,12.70
2007,06,25,09,06,12.80
2007,06,25,09,07,12.90
2007,06,25,09,08,13.00
2007,06,25,09,09,13.10
2007,06,25,09,10,13.20
2007,06,25,09,11,13.30
2007,06,25,09,12,13.40
2007,06,25,09,13,13.60
2007,06,25,09,14,13.70
2007,06,25,09,15,13.70
2007,06,25,09,16,13.80
2007,06,25,09,17,13.90
2007,06,25,09,18,14.00
2007,06,25,09,19,14.10
2007,06,25,09,20,14.10
2007,06,25,09,21,14.10
2007,06,25,09,22,14.20
2007,06,25,09,23,14.20
2007,06,25,09,24,14.20
2007,06,25,09,25,14.20
2007,06,25,09,26,14.20
2007,06,25,09,27,14.10
2007,06,25,09,28,14.10
2007,06,25,09,29,14.00
2007,06,25,09,30,13.90
2007,06,25,09,31,13.80
2007,06,25,09,32,13.80
2007,06,25,09,33,13.70
2007,06,25,09,34,13.70
2007,06,25,09,35,13.60
2007,06,25,09,36,13.60
2007,06,25,09,37,13.60
2007,06,25,09,38,13.60
2007,06,25,09,39,13.60
2007,06,25,09,40,13.60
2007,06,25,09,41,13.60
2007,06,25,09,42,13.70
2007,06,25,09,43,13.70
2007,06,25,09,44,13.70
2007,06,25,09,45,13.70
2007,06,25,09,46,13.70
2007,06,25,09,47,13.80
2007,06,25,09,48,13.80
2007,06,25,09,49,13.80
2007,06,25,09,50,13.90
2007,06,25,09,51,13.90
2007,06,25,09,52,14.00
2007,06,25,09,53,14.00
2007,06,25,09,54,14.10
2007,06,25,09,55,14.10
2007,06,25,09,56,14.20
2007,06,25,09,57,14.20
2007,06,25,09,58,14.20
2007,06,25,09,59,14.20
2007,06,25,10,00,14.20
2007,06,25,10,01,14.30
2007,06,25,10,02,14.30
2007,06,25,10,03,14.40
2007,06,25,10,04,14.40
2007,06,25,10,05,14.40
2007,06,25,10,06,14.40
2007,06,25,10,07,14.40
2007,06,25,10,08,14.50
2007,06,25,10,09,14.50
2007,06,25,10,10,14.50
2007,06,25,10,11,14.50
2007,06,25,10,12,14.50
2007,06,25,10,13,14.60
2007,06,25,10,14,14.60
2007,06,25,10,15,14.70
2007,06,25,10,16,14.80
2007,06,25,10,17,14.90
2007,06,25,10,18,15.00
2007,06,25,10,19,15.00
2007,06,25,10,20,15.10
2007,06,25,10,21,15.20
2007,06,25,10,22,15.30
2007,06,25,10,23,15.40
2007,06,25,10,24,15.50
2007,06,25,10,25,15.60
2007,06,25,10,26,15.60
2007,06,25,10,27,15.70
2007,06,25,10,28,15.70
2007,06,25,10,29,15.70
2007,06,25,10,30,15.70
2007,06,25,10,31,15.70
2007,06,25,10,32,15.70
2007,06,25,10,33,15.70
2007,06,25,10,34,15.60
2007,06,25,10,35,15.50
2007,06,25,10,36,15.40
2007,06,25,10,37,15.40
2007,06,25,10,38,15.50
2007,06,25,10,39,15.50
2007,06,25,10,40,15.50
2007,06,25,10,41,15.60
2007,06,25,10,42,15.70
2007,06,25,10,43,15.70
2007,06,25,10,44,15.80
2007,06,25,10,45,15.70
2007,06,25,10,46,15.70
2007,06,25,10,47,15.80
2007,06,25,10,48,15.80
2007,06,25,10,49,15.90
2007,06,25,10,50,16.00
2007,06,25,10,51,16.00
2007,06,25,10,52,16.10
2007,06,25,10,53,16.20
2007,06,25,10,54,16.20
2007,06,25,10,55,16.30
2007,06,25,10,56,16.30
2007,06,25,10,57,16.40
2007,06,25,10,58,16.60
2007,06,25,10,59,16.70
2007,06,25,11,00,16.80
2007,06,25,11,01,16.90
2007,06,25,11,02,17.00
2007,06,25,11,03,17.00
2007,06,25,11,04,17.00
2007,06,25,11,05,17.10
2007,06,25,11,06,17.10
2007,06,25,11,07,17.10
2007,06,25,11,08,17.00
2007,06,25,11,09,16.90
2007,06,25,11,10,16.80
2007,06,25,11,11,16.70
2007,06,25,11,12,16.70
2007,06,25,11,13,16.70
2007,06,25,11,14,16.80
2007,06,25,11,15,16.80
2007,06,25,11,16,16.70
2007,06,25,11,17,16.50
2007,06,25,11,18,16.40
2007,06,25,11,19,16.40
2007,06,25,11,20,16.30
2007,06,25,11,21,16.20
2007,06,25,11,22,16.20
2007,06,25,11,23,16.20
2007,06,25,11,24,16.10
2007,06,25,11,25,16.00
2007,06,25,11,26,16.00
2007,06,25,11,27,16.00
2007,06,25,11,28,16.10
2007,06,25,11,29,16.10
2007,06,25,11,30,16.20
2007,06,25,11,31,16.30
2007,06,25,11,32,16.30
2007,06,25,11,33,16.40
2007,06,25,11,34,16.50
2007,06,25,11,35,16.60
2007,06,25,11,36,16.70
2007,06,25,11,37,16.80
2007,06,25,11,38,17.00
2007,06,25,11,39,17.00
2007,06,25,11,40,17.10
2007,06,25,11,41,17.10
2007,06,25,11,42,17.20
2007,06,25,11,43,17.20
2007,06,25,11,44,17.00
2007,06,25,11,45,16.80
2007,06,25,11,46,16.70
2007,06,25,11,47,16.70
2007,06,25,11,48,16.70
2007,06,25,11,49,16.70
2007,06,25,11,50,16.70
2007,06,25,11,51,16.80
2007,06,25,11,52,16.90
2007,06,25,11,53,17.00
2007,06,25,11,54,17.10
2007,06,25,11,55,17.10
2007,06,25,11,56,17.10
2007,06,25,11,57,17.10
2007,06,25,11,58,17.20
2007,06,25,11,59,17.30
2007,06,25,12,00,17.40
2007,06,25,12,01,17.40
2007,06,25,12,02,17.60
2007,06,25,12,03,17.60
2007,06,25,12,04,17.60
2007,06,25,12,05,17.70
2007,06,25,12,06,17.70
2007,06,25,12,07,17.70
2007,06,25,12,08,17.70
2007,06,25,12,09,17.60
2007,06,25,12,10,17.40
2007,06,25,12,11,17.20
2007,06,25,12,12,17.10
2007,06,25,12,13,17.00
2007,06,25,12,14,16.90
2007,06,25,12,15,16.80
2007,06,25,12,16,16.80
2007,06,25,12,17,16.70
2007,06,25,12,18,16.70
2007,06,25,12,19,16.70
2007,06,25,12,20,16.70
2007,06,25,12,21,16.60
2007,06,25,12,22,16.60
2007,06,25,12,23,16.50
2007,06,25,12,24,16.50
2007,06,25,12,25,16.50
2007,06,25,12,26,16.40
2007,06,25,12,27,16.40
2007,06,25,12,28,16.30
2007,06,25,12,29,16.30
2007,06,25,12,30,16.30
2007,06,25,12,31,16.30
2007,06,25,12,32,16.30
2007,06,25,12,33,16.30
2007,06,25,12,34,16.30
2007,06,25,12,35,16.30
2007,06,25,12,36,16.30
2007,06,25,12,37,16.30
2007,06,25,12,38,16.30
2007,06,25,12,39,16.20
2007,06,25,12,40,16.20
2007,06,25,12,41,16.20
2007,06,25,12,42,16.20
2007,06,25,12,43,16.30
2007,06,25,12,44,16.40
2007,06,25,12,45,16.50
2007,06,25,12,46,16.60
2007,06,25,12,47,16.80
2007,06,25,12,48,16.80
2007,06,25,12,49,16.90
2007,06,25,12,50,17.00
2007,06,25,12,51,17.00
2007,06,25,12,52,17.00
2007,06,25,12,53,17.10
2007,06,25,12,54,17.10
2007,06,25,12,55,17.20
2007,06,25,12,56,17.30
2007,06,25,12,57,17.30
2007,06,25,12,58,17.30
2007,06,25,12,59,17.30
2007,06,25,13,00,17.30
2007,06,25,13,01,17.30
2007,06,25,13,02,17.30
2007,06,25,13,03,17.20
2007,06,25,13,04,17.20
2007,06,25,13,05,17.20
2007,06,25,13,06,17.30
2007,06,25,13,07,17.30
2007,06,25,13,08,17.40
2007,06,25,13,09,17.40
2007,06,25,13,10,17.50
2007,06,25,13,11,17.60
2007,06,25,13,12,17.60
2007,06,25,13,13,17.60
2007,06,25,13,14,17.50
2007,06,25,13,15,17.50
2007,06,25,13,16,17.40
2007,06,25,13,17,17.40
2007,06,25,13,18,17.30
2007,06,25,13,19,17.30
2007,06,25,13,20,17.30
2007,06,25,13,21,17.30
2007,06,25,13,22,17.30
2007,06,25,13,23,17.30
2007,06,25,13,24,17.30
2007,06,25,13,25,17.30
2007,06,25,13,26,17.30
2007,06,25,13,27,17.30
2007,06,25,13,28,17.30
2007,06,25,13,29,17.30
2007,06,25,13,30,17.30
2007,06,25,13,31,17.30
2007,06,25,13,32,17.20
2007,06,25,13,33,17.20
2007,06,25,13,34,17.10
2007,06,25,13,35,17.00
2007,06,25,13,36,16.90
2007,06,25,13,37,16.70
2007,06,25,13,38,16.60
2007,06,25,13,39,16.50
2007,06,25,13,40,16.40
2007,06,25,13,41,16.30
2007,06,25,13,42,16.20
2007,06,25,13,43,16.20
2007,06,25,13,44,16.20
2007,06,25,13,45,16.20
2007,06,25,13,46,16.20
2007,06,25,13,47,16.20
2007,06,25,13,48,16.20
2007,06,25,13,49,16.30
2007,06,25,13,50,16.30
2007,06,25,13,51,16.30
2007,06,25,13,52,16.40
2007,06,25,13,53,16.40
2007,06,25,13,54,16.50
2007,06,25,13,55,16.60
2007,06,25,13,56,16.70
2007,06,25,13,57,16.80
2007,06,25,13,58,16.90
2007,06,25,13,59,17.00
2007,06,25,14,00,17.10
2007,06,25,14,01,17.20
2007,06,25,14,02,17.30
2007,06,25,14,03,17.30
2007,06,25,14,04,17.40
2007,06,25,14,05,17.40
2007,06,25,14,06,17.40
2007,06,25,14,07,17.40
2007,06,25,14,08,17.40
2007,06,25,14,09,17.40
2007,06,25,14,10,17.40
2007,06,25,14,11,17.40
2007,06,25,14,12,17.40
2007,06,25,14,13,17.50
2007,06,25,14,14,17.40
2007,06,25,14,15,17.50
2007,06,25,14,16,17.60
2007,06,25,14,17,17.60
2007,06,25,14,18,17.70
2007,06,25,14,19,17.70
2007,06,25,14,20,17.80
2007,06,25,14,21,17.80
2007,06,25,14,22,17.80
2007,06,25,14,23,17.80
2007,06,25,14,24,17.90
2007,06,25,14,25,18.00
2007,06,25,14,26,18.00
2007,06,25,14,27,18.10
2007,06,25,14,28,18.20
2007,06,25,14,29,18.30
2007,06,25,14,30,18.30
2007,06,25,14,31,18.30
2007,06,25,14,32,18.30
2007,06,25,14,33,18.20
2007,06,25,14,34,18.20
2007,06,25,14,35,18.20
2007,06,25,14,36,18.10
2007,06,25,14,37,18.10
2007,06,25,14,38,18.00
2007,06,25,14,39,17.90
2007,06,25,14,40,17.90
2007,06,25,14,41,17.90
2007,06,25,14,42,17.90
2007,06,25,14,43,18.00
2007,06,25,14,44,18.10
2007,06,25,14,45,18.10
2007,06,25,14,46,18.10
2007,06,25,14,47,18.10
2007,06,25,14,48,18.20
2007,06,25,14,49,18.20
2007,06,25,14,50,18.20
2007,06,25,14,51,18.30
2007,06,25,14,52,18.30
2007,06,25,14,53,18.40
2007,06,25,14,54,18.50
2007,06,25,14,55,18.60
2007,06,25,14,56,18.60
2007,06,25,14,57,18.60
2007,06,25,14,58,18.60
2007,06,25,14,59,18.60
2007,06,25,15,00,18.60
2007,06,25,15,01,18.50
2007,06,25,15,02,18.60
2007,06,25,15,03,18.60
2007,06,25,15,04,18.70
2007,06,25,15,05,18.70
2007,06,25,15,06,18.80
2007,06,25,15,07,18.80
2007,06,25,15,08,18.90
2007,06,25,15,09,18.90
2007,06,25,15,10,18.90
2007,06,25,15,11,18.90
2007,06,25,15,12,18.90
2007,06,25,15,13,19.00
2007,06,25,15,14,19.00
2007,06,25,15,15,19.10
2007,06,25,15,16,19.00
2007,06,25,15,17,19.00
2007,06,25,15,18,18.90
2007,06,25,15,19,18.80
2007,06,25,15,20,18.80
2007,06,25,15,21,18.80
2007,06,25,15,22,18.70
2007,06,25,15,23,18.60
2007,06,25,15,24,18.60
2007,06,25,15,25,18.50
2007,06,25,15,26,18.50
2007,06,25,15,27,18.50
2007,06,25,15,28,18.40
2007,06,25,15,29,18.40
2007,06,25,15,30,18.30
2007,06,25,15,31,18.30
2007,06,25,15,32,18.20
2007,06,25,15,33,18.20
2007,06,25,15,34,18.20
2007,06,25,15,35,18.10
2007,06,25,15,36,18.10
2007,06,25,15,37,18.20
2007,06,25,15,38,18.20
2007,06,25,15,39,18.20
2007,06,25,15,40,18.20
2007,06,25,15,41,18.10
2007,06,25,15,42,18.10
2007,06,25,15,43,18.10
2007,06,25,15,44,18.00
2007,06,25,15,45,17.90
2007,06,25,15,46,17.90
2007,06,25,15,47,17.80
2007,06,25,15,48,17.80
2007,06,25,15,49,17.80
2007,06,25,15,50,17.80
2007,06,25,15,51,17.80
2007,06,25,15,52,17.70
2007,06,25,15,53,17.70
2007,06,25,15,54,17.60
2007,06,25,15,55,17.50
2007,06,25,15,56,17.50
2007,06,25,15,57,17.60
2007,06,25,15,58,17.60
2007,06,25,15,59,17.60
2007,06,25,16,00,17.60
2007,06,25,16,01,17.70
2007,06,25,16,02,17.70
2007,06,25,16,03,17.70
2007,06,25,16,04,17.70
2007,06,25,16,05,17.70
2007,06,25,16,06,17.70
2007,06,25,16,07,17.80
2007,06,25,16,08,17.80
2007,06,25,16,09,17.90
2007,06,25,16,10,17.90
2007,06,25,16,11,17.90
2007,06,25,16,12,17.90
2007,06,25,16,13,17.90
2007,06,25,16,14,17.90
2007,06,25,16,15,17.90
2007,06,25,16,16,17.90
2007,06,25,16,17,17.90
2007,06,25,16,18,17.90
2007,06,25,16,19,17.90
2007,06,25,16,20,17.90
2007,06,25,16,21,17.90
2007,06,25,16,22,17.90
2007,06,25,16,23,17.80
2007,06,25,16,24,17.70
2007,06,25,16,25,17.70
2007,06,25,16,26,17.70
2007,06,25,16,27,17.70
2007,06,25,16,28,17.70
2007,06,25,16,29,17.70
2007,06,25,16,30,17.70
2007,06,25,16,31,17.60
2007,06,25,16,32,17.50
2007,06,25,16,33,17.50
2007,06,25,16,34,17.60
2007,06,25,16,35,17.60
2007,06,25,16,36,17.60
2007,06,25,16,37,17.70
2007,06,25,16,38,17.70
2007,06,25,16,39,17.80
2007,06,25,16,40,17.80
2007,06,25,16,41,17.90
2007,06,25,16,42,17.90
2007,06,25,16,43,18.00
2007,06,25,16,44,18.00
2007,06,25,16,45,18.10
2007,06,25,16,46,18.10
2007,06,25,16,47,18.10
2007,06,25,16,48,18.00
2007,06,25,16,49,17.90
2007,06,25,16,50,17.80
2007,06,25,16,51,17.80
2007,06,25,16,52,17.70
2007,06,25,16,53,17.70
2007,06,25,16,54,17.70
2007,06,25,16,55,17.70
2007,06,25,16,56,17.80
2007,06,25,16,57,17.70
2007,06,25,16,58,17.80
2007,06,25,16,59,17.80
2007,06,25,17,00,17.80
2007,06,25,17,01,17.80
2007,06,25,17,02,17.80
2007,06,25,17,03,17.80
2007,06,25,17,04,17.80
2007,06,25,17,05,17.80
2007,06,25,17,06,17.80
2007,06,25,17,07,17.80
2007,06,25,17,08,17.90
2007,06,25,17,09,17.90
2007,06,25,17,10,17.90
2007,06,25,17,11,18.00
2007,06,25,17,12,18.00
2007,06,25,17,13,18.10
2007,06,25,17,14,18.10
2007,06,25,17,15,18.10
2007,06,25,17,16,18.10
2007,06,25,17,17,18.00
2007,06,25,17,18,18.00
2007,06,25,17,19,17.90
2007,06,25,17,20,17.90
2007,06,25,17,21,17.80
2007,06,25,17,22,17.80
2007,06,25,17,23,17.80
2007,06,25,17,24,17.80
2007,06,25,17,25,17.80
2007,06,25,17,26,17.70
2007,06,25,17,27,17.70
2007,06,25,17,28,17.70
2007,06,25,17,29,17.70
2007,06,25,17,30,17.70
2007,06,25,17,31,17.70
2007,06,25,17,32,17.70
2007,06,25,17,33,17.70
2007,06,25,17,34,17.70
2007,06,25,17,35,17.70
2007,06,25,17,36,17.70